• In Belarus
  • List of Countries
  • For 7 days
  • Water Temperature
  • Satellite Maps
  • Weather Map
  • Weather Widgets
  • user-avatar
    Login

    Hourly Weather Saurimo

    Today, 20 March, Wednesday

    Time Temperature Precipitation Wind Pressure Humidity
    00:00 +22°C° 0.3 mm 1 mps 668 mmHg 85%
    01:00 +22°C° 0 mm 1 mps 669 mmHg 88%
    02:00 +21°C° 0.8 mm 1 mps 669 mmHg 90%
    03:00 +21°C° 0.8 mm 1 mps 669 mmHg 92%
    04:00 +21°C° 0.8 mm 1 mps 669 mmHg 94%
    05:00 +21°C° 0 mm 1 mps 669 mmHg 93%
    06:00 +22°C° 0 mm 1 mps 670 mmHg 91%
    07:00 +23°C° 0 mm 1 mps 670 mmHg 89%
    08:00 +24°C° 0 mm 0 mps 671 mmHg 77%
    09:00 +28°C° 0 mm 0 mps 671 mmHg 66%
    10:00 +31°C° 0 mm 0 mps 672 mmHg 55%
    11:00 +33°C° 0 mm 1 mps 671 mmHg 50%
    12:00 +33°C° 0 mm 1 mps 671 mmHg 46%
    13:00 +35°C° 0 mm 2 mps 670 mmHg 41%
    14:00 +34°C° 0 mm 2 mps 670 mmHg 45%
    15:00 +32°C° 0 mm 1 mps 669 mmHg 49%
    16:00 +32°C° 0 mm 1 mps 669 mmHg 53%
    17:00 +29°C° 1.9 mm 2 mps 669 mmHg 63%
    18:00 +27°C° 1.9 mm 2 mps 669 mmHg 74%
    19:00 +24°C° 1.9 mm 3 mps 668 mmHg 85%
    20:00 +23°C° 2.1 mm 2 mps 669 mmHg 88%
    21:00 +23°C° 2.1 mm 2 mps 669 mmHg 91%
    22:00 +22°C° 2.1 mm 1 mps 669 mmHg 94%
    23:00 +21°C° 0.2 mm 2 mps 669 mmHg 94%

    Tomorrow, 21 March, Thursday

    Time Temperature Precipitation Wind Pressure Humidity
    00:00 +21°C° 0.2 mm 2 mps 669 mmHg 94%
    01:00 +20°C° 0.2 mm 2 mps 669 mmHg 95%
    02:00 +20°C° 0.2 mm 2 mps 669 mmHg 95%
    03:00 +20°C° 0.2 mm 2 mps 669 mmHg 95%
    04:00 +21°C° 0.2 mm 1 mps 669 mmHg 95%
    05:00 +21°C° 0 mm 1 mps 669 mmHg 94%
    06:00 +22°C° 0 mm 1 mps 670 mmHg 93%
    07:00 +22°C° 0 mm 1 mps 670 mmHg 92%
    08:00 +24°C° 0 mm 1 mps 671 mmHg 83%
    09:00 +26°C° 0 mm 1 mps 671 mmHg 75%
    10:00 +28°C° 0 mm 1 mps 672 mmHg 66%
    11:00 +29°C° 0 mm 1 mps 672 mmHg 59%
    12:00 +31°C° 0 mm 1 mps 671 mmHg 52%
    13:00 +33°C° 0 mm 1 mps 671 mmHg 45%
    14:00 +32°C° 0 mm 1 mps 670 mmHg 48%
    15:00 +32°C° 0 mm 1 mps 670 mmHg 52%
    16:00 +31°C° 0 mm 1 mps 669 mmHg 55%
    17:00 +29°C° 0 mm 1 mps 669 mmHg 61%
    18:00 +27°C° 0 mm 1 mps 669 mmHg 66%
    19:00 +25°C° 0 mm 1 mps 669 mmHg 71%
    20:00 +22°C° 0.5 mm 0 mps 669 mmHg 75%
    21:00 +22°C° 0.5 mm 0 mps 669 mmHg 80%
    22:00 +21°C° 0.5 mm 0 mps 669 mmHg 84%
    23:00 +20°C° 0 mm 0 mps 669 mmHg 86%

    Day after tomorrow, 22 March, Friday

    Time Temperature Precipitation Wind Pressure Humidity
    00:00 +22°C° 0 mm 1 mps 669 mmHg 87%
    01:00 +22°C° 0 mm 1 mps 669 mmHg 89%
    02:00 +21°C° 0 mm 1 mps 668 mmHg 89%
    03:00 +21°C° 0 mm 1 mps 668 mmHg 89%
    04:00 +21°C° 0 mm 1 mps 668 mmHg 90%
    05:00 +21°C° 0 mm 1 mps 669 mmHg 87%
    06:00 +22°C° 0 mm 1 mps 669 mmHg 84%
    07:00 +22°C° 0 mm 1 mps 670 mmHg 82%
    08:00 +25°C° 0 mm 1 mps 671 mmHg 72%
    09:00 +28°C° 0 mm 1 mps 671 mmHg 62%
    10:00 +31°C° 0 mm 1 mps 672 mmHg 52%
    11:00 +32°C° 0 mm 2 mps 671 mmHg 49%
    12:00 +32°C° 0 mm 2 mps 671 mmHg 46%
    13:00 +34°C° 0 mm 2 mps 670 mmHg 43%
    14:00 +34°C° 0 mm 2 mps 670 mmHg 46%
    15:00 +34°C° 0 mm 2 mps 669 mmHg 49%
    16:00 +32°C° 0 mm 1 mps 669 mmHg 51%
    17:00 +30°C° 0 mm 1 mps 669 mmHg 57%
    18:00 +28°C° 0 mm 1 mps 669 mmHg 62%
    19:00 +24°C° 0 mm 0 mps 669 mmHg 67%
    20:00 +25°C° 0 mm 1 mps 669 mmHg 69%
    21:00 +25°C° 0 mm 1 mps 669 mmHg 71%
    22:00 +24°C° 0 mm 1 mps 670 mmHg 72%
    23:00 +24°C° 0.1 mm 1 mps 669 mmHg 74%

    23 March, Saturday

    Time Temperature Precipitation Wind Pressure Humidity
    00:00 +23°C° 0.1 mm 1 mps 669 mmHg 76%
    01:00 +23°C° 0.1 mm 1 mps 668 mmHg 78%
    02:00 +22°C° 0 mm 1 mps 668 mmHg 79%
    03:00 +22°C° 0 mm 1 mps 668 mmHg 80%
    04:00 +22°C° 0 mm 1 mps 668 mmHg 80%
    05:00 +22°C° 0.3 mm 1 mps 669 mmHg 81%
    06:00 +20°C° 0.3 mm 0 mps 669 mmHg 83%
    07:00 +21°C° 0.3 mm 0 mps 670 mmHg 84%
    08:00 +23°C° 0 mm 0 mps 671 mmHg 76%
    09:00 +26°C° 0 mm 0 mps 671 mmHg 68%
    10:00 +29°C° 0 mm 0 mps 672 mmHg 60%
    11:00 +29°C° 0.3 mm 0 mps 671 mmHg 55%
    12:00 +32°C° 0.3 mm 1 mps 671 mmHg 50%
    13:00 +32°C° 0.3 mm 1 mps 670 mmHg 45%
    14:00 +32°C° 0 mm 1 mps 670 mmHg 48%
    15:00 +31°C° 0 mm 1 mps 669 mmHg 52%
    16:00 +31°C° 0 mm 1 mps 669 mmHg 55%
    17:00 +29°C° 0 mm 1 mps 669 mmHg 60%
    18:00 +27°C° 0 mm 1 mps 669 mmHg 65%
    19:00 +25°C° 0 mm 1 mps 669 mmHg 69%
    20:00 +24°C° 0 mm 1 mps 669 mmHg 70%
    21:00 +24°C° 0 mm 1 mps 668 mmHg 71%
    22:00 +23°C° 0 mm 1 mps 668 mmHg 72%
    23:00 +22°C° 0.1 mm 1 mps 668 mmHg 74%

    24 March, Sunday

    Time Temperature Precipitation Wind Pressure Humidity
    00:00 +22°C° 0.1 mm 1 mps 668 mmHg 76%
    01:00 +20°C° 0.1 mm 0 mps 668 mmHg 78%
    02:00 +19°C° 0.4 mm 0 mps 668 mmHg 81%
    03:00 +21°C° 0.4 mm 1 mps 668 mmHg 85%
    04:00 +20°C° 0.4 mm 1 mps 668 mmHg 88%
    05:00 +19°C° 0.1 mm 0 mps 669 mmHg 87%
    06:00 +19°C° 0.1 mm 0 mps 669 mmHg 87%
    07:00 +20°C° 0.1 mm 0 mps 670 mmHg 86%
    08:00 +23°C° 0.2 mm 0 mps 671 mmHg 77%
    09:00 +26°C° 0.2 mm 0 mps 671 mmHg 68%
    10:00 +29°C° 0.2 mm 0 mps 672 mmHg 60%
    11:00 +29°C° 1.1 mm 0 mps 671 mmHg 57%
    12:00 +32°C° 1.1 mm 1 mps 670 mmHg 55%
    13:00 +32°C° 1.1 mm 1 mps 670 mmHg 53%
    14:00 +31°C° 0.2 mm 1 mps 669 mmHg 56%
    15:00 +30°C° 0.2 mm 1 mps 669 mmHg 60%
    16:00 +29°C° 0.2 mm 1 mps 669 mmHg 64%
    17:00 +27°C° 0.7 mm 1 mps 669 mmHg 73%
    18:00 +25°C° 0.7 mm 1 mps 669 mmHg 82%
    19:00 +23°C° 0.7 mm 2 mps 669 mmHg 91%
    20:00 +23°C° 0.1 mm 1 mps 669 mmHg 92%
    21:00 +22°C° 0.1 mm 1 mps 669 mmHg 93%
    22:00 +22°C° 0.1 mm 1 mps 670 mmHg 94%
    23:00 +22°C° 0.2 mm 1 mps 669 mmHg 94%

    25 March, Monday

    Time Temperature Precipitation Wind Pressure Humidity
    00:00 +22°C° 0.2 mm 1 mps 669 mmHg 94%
    01:00 +20°C° 0.2 mm 0 mps 669 mmHg 94%
    02:00 +20°C° 0.1 mm 0 mps 669 mmHg 94%
    03:00 +20°C° 0.1 mm 0 mps 669 mmHg 95%
    04:00 +19°C° 0.1 mm 0 mps 669 mmHg 95%
    05:00 +20°C° 0.2 mm 0 mps 669 mmHg 94%
    06:00 +20°C° 0.2 mm 0 mps 670 mmHg 94%
    07:00 +22°C° 0.2 mm 1 mps 670 mmHg 94%
    08:00 +22°C° 0.5 mm 1 mps 670 mmHg 94%
    09:00 +22°C° 0.5 mm 1 mps 670 mmHg 93%
    10:00 +23°C° 0.5 mm 1 mps 670 mmHg 92%
    11:00 +24°C° 0.1 mm 1 mps 670 mmHg 85%
    12:00 +25°C° 0.1 mm 1 mps 669 mmHg 77%
    13:00 +27°C° 0.1 mm 1 mps 669 mmHg 69%
    14:00 +27°C° 0 mm 1 mps 669 mmHg 68%
    15:00 +27°C° 0 mm 1 mps 669 mmHg 67%
    16:00 +28°C° 0 mm 1 mps 669 mmHg 66%
    17:00 +26°C° 0 mm 1 mps 669 mmHg 69%
    18:00 +25°C° 0 mm 1 mps 669 mmHg 73%
    19:00 +23°C° 0 mm 1 mps 669 mmHg 76%
    20:00 +23°C° 0 mm 1 mps 669 mmHg 78%
    21:00 +21°C° 0 mm 0 mps 669 mmHg 80%
    22:00 +20°C° 0 mm 0 mps 669 mmHg 81%
    23:00 +20°C° 0 mm 0 mps 669 mmHg 82%
    Show more